User: anonymous   Login
Location: Unspecified
(0.0000°N, 0.0000°E)
Time: 19:55:36
(UTC+00:00)
Language:

PROITERES - Orbit

View from above orbital plane
View from above orbital plane
View from above satellite
View from above satellite

Ground track
Ground track

The orbit data is extracted from the following two-line orbital elements,

1 38756U 12047B   19341.40358711  .00000071  00000-0  18204-4 0  9997
2 38756  98.3872 144.3729 0013114 118.3602 241.8938 14.76607123390126
Epoch (UTC): 07 December 2019 09:41:09
Eccentricity: 0.0013114
inclination: 98.3872°
perigee height: 631 km
apogee height: 649 km
right ascension of ascending node: 144.3729°
argument of perigee: 118.3602°
revolutions per day: 14.76607123
mean anomaly at epoch: 241.8938°
orbit number at epoch: 39012

The dashed part of the orbit path shows where the satellite is in the earth's shadow,  

DLR